OBJECT H

基本信息
目录编号:
42832
目录名称:
OBJECT H
国际标识:
2017-042H
轨道中心:
EARTH
物体状态:
在轨
发射日期:
2017-07-14 UTC
国别:
(TBD)
轨道信息
数据来源: 国际轨道数据
星历时间: 2026-09-05T14:23:22+0800
半长轴: 6918.412km
偏心率: 0.0009571
轨道倾角: 97.426°
近地点辐角: 189.966°
升交点赤经: 46.121°
平近点角: 170.138°
近地点: 533.653km
远地点: 546.897km
周期: 95.449分钟
每日圈数: 15.086663
详细信息
发射场:
TTMTR
轨道高度:
LEO
数据来源:
AOE Working Group
参考系:
TEME
时间系统:
UTC
历元类型:
SGP4
2D轨道图
3D轨道图
轨道高度分析图
轨道倾角分析图
轨道综合分析图
查看轨道综合分析图